Torna al catalogo

COSMOS 1275 DEB

AttivoPO
NORAD 17792·DEBRIS·🇷🇺 Russia

Lanciato Jun 4, 1981 da Plesetsk Cosmodrome

Loading…

Prossimi Passaggi (prossime 24 ore)

TLE

AggiornatoSource: Space-Track

Epoca: Sep 14, 2026, 22:22 UTC

1 17792U 81053LN  26257.93246868  .00001466  00000-0  76770-3 0  9998
2 17792  82.9556 180.3922 0013576 335.5172 141.8320 14.13675805109319

Traccia COSMOS 1275 DEB in tempo reale con AllMySat

Download on the App Store